Location: Newark
(45.5167°N, 11.1667°E)
Time: 16:06:06
(UTC+00:00)

SR - Visible Passes

Search period start: 08 December 2019 00:00
Search period end: 18 December 2019 00:00
Orbit: 573 x 882 km, 66.7° (Epoch: 07 December)

Date Brightness Start Highest point End Pass type
(mag) Time Alt. Az. Time Alt. Az. Time Alt. Az.
08 Dec ? 16:57:04 10° NNW 17:02:36 39° NE 17:06:09 19° ESE visible
08 Dec ? 18:39:16 10° NW 18:44:49 44° WSW 18:45:40 41° SW visible
09 Dec ? 16:07:37 10° NNW 16:12:29 25° NE 16:17:11 10° E visible
09 Dec ? 17:49:22 10° NW 17:55:18 79° WSW 17:59:01 22° SSE visible
09 Dec ? 19:33:54 10° WNW 19:36:23 13° W 19:38:34 11° SW visible
10 Dec ? 16:59:41 10° NNW 17:05:34 61° NE 17:11:07 10° SE visible
10 Dec ? 18:42:36 10° NW 18:47:14 25° WSW 18:51:41 10° SSW visible
11 Dec ? 16:10:09 10° NNW 16:15:38 37° NE 16:20:52 10° ESE visible
11 Dec ? 17:52:20 10° NW 17:57:54 46° WSW 18:03:10 10° S visible
12 Dec ? 17:02:26 10° NW 17:08:22 83° WSW 17:13:56 10° SSE visible
12 Dec ? 18:46:45 10° WNW 18:49:31 14° WSW 18:52:12 10° SW visible
13 Dec ? 16:12:46 10° NNW 16:18:37 58° NE 16:24:08 10° SE visible
13 Dec ? 17:55:36 10° NW 18:00:20 26° WSW 18:04:52 10° SSW visible
14 Dec ? 17:05:23 10° NW 17:11:00 48° WSW 17:16:16 10° S visible
15 Dec ? 05:58:19 10° SE 06:00:41 13° E 06:03:05 10° ENE visible
15 Dec ? 16:15:31 10° NNW 16:21:26 87° WSW 16:26:59 10° SSE visible
15 Dec ? 17:59:37 10° WNW 18:02:37 15° WSW 18:05:32 10° SW visible
16 Dec ? 17:08:37 10° NW 17:13:27 28° WSW 17:18:02 10° SSW visible
17 Dec ? 05:58:37 10° SSE 06:02:55 24° ESE 06:07:26 10° NE visible
17 Dec ? 16:18:26 10° NW 16:24:05 51° WSW 16:29:22 10° S visible
